Location: Ku?niki
(51.4449°N, 17.8974°E)
Time: 11:12:14
(UTC+00:00)

Cosmos 2278 Rocket - Pass Details

Date: 18 September 2020
Orbit: 841 x 845 km, 71.0° (Epoch: 25 October)

Event Time Altitude Azimuth Distance (km) Brightness Sun altitude
Exits shadow 23:04:09 19° 312° (NW) 1,933 4.3 -37.0°
Maximum altitude 23:05:16 20° 327° (NNW) 1,883 4.4 -36.9°
Drops below altitude 10° 23:09:18 10° 13° (NNE) 2,472 5.4 -36.8°
Sets 23:12:30 0° 31° (NNE) 3,411 6.2 -36.8°
